Regional Weather Roundup
Issued by NWS

Home | Current Version | Previous Version | Graphics & Text | Print | Product List | Glossary On
Versions: 1 2 3 4 5 6 7 8 9 10 11 12 13 14 15 16 17 18 19 20 21 22 23 24 25 26 27 28 29 30 31 32 33 34 35 36 37 38 39 40 41 42 43 44 45 46 47 48 49 50
000
ASUS43 KLOT 131303
RWRIL

ILLINOIS REGIONAL WEATHER ROUNDUP
NATIONAL WEATHER SERVICE CHICAGO/ROMEOVILLE IL
700 AM CST SAT FEB 13 2016

NOTE: "FAIR" INDICATES FEW OR NO CLOUDS BELOW 12,000 FEET WITH NO
SIGNIFICANT WEATHER AND/OR OBSTRUCTIONS TO VISIBILITY.

* THESE STATIONS ARE NOT UNDER NWS QUALITY CONTROL. THEY ALSO MAY NOT
  REPORT WEATHER SUCH AS PRECIPITATION OR FOG.

ILZ001-002-007-009-015-016-024-131400-
NORTHWEST ILLINOIS

CITY           SKY/WX    TMP DP  RH WIND       PRES   REMARKS
MOLINE         CLOUDY     5  -6  60 NW9       30.64R WCI  -9
STERLING*      CLOUDY     3  -9  55 NW7       30.58R WCI  -9
$$

ILZ003-004-008-010-011-017-018-131400-
NORTH CENTRAL ILLINOIS

CITY           SKY/WX    TMP DP  RH WIND       PRES   REMARKS
ROCKFORD       CLEAR      2 -11  54 NW9       30.60R WCI -13
FREEPORT*      CLOUDY     0 -10  62 NW9       30.60R WCI -16
$$

ILZ005-006-012>014-019>023-131400-
NORTHEAST ILLINOIS

CITY           SKY/WX    TMP DP  RH WIND       PRES   REMARKS
CHICAGO-OHARE  PTCLDY     2 -10  57 NW12      30.56R WCI -15
CHICAGO-MIDWAY PTCLDY     4 -11  50 NW10      30.57R WCI -11
AURORA         CLEAR      3  -8  60 NW7       30.58R WCI  -9
WAUKEGAN       CLEAR      0 -11  59 W7        30.54R WCI -13
DUPAGE AIRPORT PTCLDY     2 -12  52 NW9       30.55S WCI -13
WHEELING       PTCLDY     2 -11  54 NW7       30.58R WCI -11
NORTHERLY ISL    N/A      5  -8  55 W14         N/A  WCI -12
$$

LMZ740>746-131400-
SOUTHERN LAKE MICHIGAN

STATION/POSITION SKY/WX   TEMP    WIND        PRES    VSBY  WAVE
                          AIR SEA DIR/SP/G                  HT/PER
                          (F)     (DEG/KT/KT) (MB)    (MI)  (FT/S)
HARRISON CRIB               6     300/ 17/ 20   N/A
BURNHAM HARBOR              5     260/  8/ 13   N/A
CALUMET HARBOR              4     270/  9/ 12 1033.6R
BURNS HARBOR               10     310/ 14/ 25 1033.9R
MICHIGAN CITY              11     290/ 20/ 24   N/A
$$

ILZ025>027-034>036-040-047-049-050-058-095>099-131400-
WEST-CENTRAL ILLINOIS

CITY           SKY/WX    TMP DP  RH WIND       PRES   REMARKS
QUINCY         CLOUDY     5  -3  69 NW7       30.64R WCI  -7
MACOMB*        CLOUDY     5  -2  71 N6        30.66R WCI  -5
$$

ILZ028>032-037-038-041>044-048-051>054-059>061-131400-
CENTRAL ILLINOIS

CITY           SKY/WX    TMP DP  RH WIND       PRES   REMARKS
BLOOMINGTON    CLOUDY     3  -6  66 NW6       30.60R WCI  -8
DECATUR        PTCLDY     6  -5  60 N9        30.61R WCI  -8
PEORIA         CLOUDY     5  -7  57 N3        30.64R
SPRINGFIELD    PTCLDY     7  -2  66 N7        30.64R WCI  -5
TAYLORVILLE    NOT AVBL
$$

ILZ033-039-045-046-055>057-062-063-131400-
EAST-CENTRAL ILLINOIS

CITY           SKY/WX    TMP DP  RH WIND       PRES   REMARKS
CHAMPAIGN      CLOUDY     4  -5  66 N8        30.59R WCI  -9
MATTOON        CLOUDY     6  -3  66 N10       30.59R WCI  -9
$$

ILZ079-100>102-131400-
SOUTHWEST ILLINOIS

CITY           SKY/WX    TMP DP  RH WIND       PRES   REMARKS
ALTON          CLEAR      9   0  66 N9        30.66R WCI  -5
BELLEVILLE     CLOUDY    11  -1  59 N6        30.65R WCI   1
CAHOKIA*       CLOUDY    12   0  58 N9        30.67R WCI   0
SPARTA*        MOCLDY    12   3  66 N7        30.65R WCI   2
$$

ILZ064>066-069>071-074>076-080>082-084>086-088>090-092>094-131400-
SOUTH-CENTRAL ILLINOIS

CITY           SKY/WX    TMP DP  RH WIND       PRES   REMARKS
CARBONDALE     CLEAR     14   4  64 N7        30.64R WCI   4
MARION         PTCLDY    14   5  67 N12       30.63R WCI   0
MT. VERNON     CLEAR     10   0  61 N3        30.63R
CENTRALIA*     CLEAR     13   5  71 N6        30.63R WCI   3
SALEM*         CLEAR     12   2  65 N5        30.63R WCI   4
$$

ILZ067-068-072-073-078-083-087-091-131400-
SOUTHEAST ILLINOIS

CITY           SKY/WX    TMP DP  RH WIND       PRES   REMARKS
LAWRENCEVILLE  CLEAR     11   0  61 N9        30.62R WCI  -2
HARRISBURG*    CLEAR     13   5  71 CALM      30.63R
$$

ABBREVIATIONS USED IN REMARKS
   TC - TEMPERATURE IN CELSIUS
  WCI - WIND CHILL INDEX
   HX - HEAT INDEX
  VSB - VISIBILITY
$$




USA.gov is the U.S. government's official web portal to all federal, state and local government web resources and services.